SCP
0 0 0 0 0 0 0 0 0 0 0 0 0 0 0 0 0 0 0 0 0 0 0 0 0 0 0 0 1 1 1 1 1 1 1 2 2 2 2 2 2 1 1 1
0 0 0 0 0 0 0 0 0 0 0 0 0 0 0 0 0 0 0 0 0 0 0 0 0 0 0 0 0 1 1 1 1 1 2 2 2 2 2 2 1 1 1 1
0 0 0 0 0 0 0 0 0 0 0 0 0 0 0 0 0 0 0 0 0 0 0 0 0 0 0 0 0 0 0 0 1 1 2 2 1 1 1 1 1 1 1 0
0 0 0 0 0 0 0 0 0 0 0 0 0 0 0 0 0 0 0 0 0 0 0 0 0 0 0 0 0 0 0 0 0 1 1 1 1 1 1 1 1 0 0 0
0 0 0 0 0 0 0 0 0 0 0 0 0 0 0 0 0 0 0 0 0 0 0 0 0 0 0 0 0 0 0 0 0 0 1 1 1 1 1 0 0 0 0 0
0 0 0 0 0 0 0 0 0 0 0 0 0 0 0 0 0 0 0 0 0 0 0 0 0 0 0 0 0 0 0 0 0 0 0 1 1 1 1 0 0 0 0 0
0 0 0 0 0 0 0 0 0 0 0 0 0 0 0 0 0 0 0 0 0 0 0 0 0 0 0 0 0 0 0 0 0 0 0 1 1 1 1 0 0 0 0 0
0 0 0 0 0 0 0 0 0 0 0 0 0 0 0 0 0 0 0 0 0 0 0 0 0 0 0 0 0 0 1 1 0 0 0 1 1 1 1 0 0 0 0 0
0 0 0 0 0 0 0 0 0 0 0 0 0 0 0 0 0 0 0 0 0 0 0 0 0 0 0 0 0 0 1 1 0 0 1 1 1 1 1 0 0 0 0 0
0 0 0 0 0 0 0 0 0 0 0 0 0 0 0 0 0 0 0 0 0 0 0 0 0 0 0 0 0 0 0 0 0 1 1 1 1 1 1 0 0 0 0 0
0 0 0 0 0 0 0 0 0 0 0 0 0 0 0 0 0 0 0 0 0 0 0 0 0 0 0 0 0 0 0 0 1 1 1 1 1 1 0 0 0 0 0 0
0 0 0 0 0 0 0 0 0 0 0 0 0 0 0 0 0 0 0 0 0 0 0 0 0 0 0 0 0 0 0 0 1 1 1 1 1 0 0 0 0 0 0 0
0 0 0 0 0 0 0 0 0 0 0 0 0 0 0 0 0 0 0 0 0 0 0 0 0 0 0 0 0 0 0 0 1 1 1 1 1 0 0 0 0 0 0 0
0 0 0 0 0 0 0 0 0 0 0 0 0 0 0 0 0 0 0 0 0 0 0 0 0 0 0 0 0 0 0 0 0 0 0 0 0 0 0 0 0 0 0 0
0 0 0 0 0 0 0 0 0 0 0 0 0 0 0 0 0 0 0 0 0 0 0 0 0 0 0 0 0 0 0 0 0 0 0 0 0 0 0 0 0 0 0 0
0 0 0 0 0 0 0 0 0 0 0 0 0 0 0 0 0 0 0 0 0 0 0 0 0 0 0 0 0 0 0 0 0 0 0 0 0 0 0 0 0 0 0 0
0 0 0 0 0 0 0 0 0 0 0 0 0 0 0 0 0 0 0 0 0 0 0 0 0 0 0 0 0 0 0 0 0 0 0 0 0 0 0 0 0 0 0 0
0 0 0 0 0 0 0 0 0 0 0 0 0 0 0 0 0 0 0 0 0 0 0 0 0 0 0 0 0 0 0 0 0 0 0 0 0 0 0 0 0 0 0 0
0 0 0 0 0 0 0 0 0 0 0 0 0 0 0 0 0 0 0 0 0 0 0 0 0 0 0 0 0 0 0 0 0 0 0 0 0 0 0 0 0 0 0 0
0 0 0 0 0 0 0 0 0 0 0 0 0 0 0 0 0 0 0 0 0 0 0 0 0 0 0 0 0 0 0 0 0 0 0 0 0 0 0 0 0 0 0 0
0 0 0 0 0 0 0 0 0 0 0 0 0 0 0 0 0 0 0 0 0 0 0 0 0 0 0 0 0 0 0 0 0 0 0 0 0 0 0 0 0 0 0 0
0 0 0 0 0 0 0 0 0 0 0 0 0 0 0 0 0 0 0 0 0 0 0 0 0 0 0 0 0 0 0 0 0 0 0 0 0 0 0 0 0 0 0 0
0 0 0 0 0 0 0 0 0 0 0 0 0 0 0 0 0 0 0 0 0 0 0 0 0 0 0 0 0 0 0 0 0 0 0 0 0 0 0 0 0 0 0 0
0 0 0 0 0 0 0 0 0 0 0 0 0 0 0 0 0 0 0 0 0 0 0 0 0 0 0 0 0 0 0 0 0 0 0 0 0 0 0 0 0 0 0 0
0 0 0 0 0 0 0 0 0 0 0 0 0 0 0 0 0 0 0 0 0 0 0 0 0 0 0 0 0 0 0 0 0 0 0 0 0 0 0 0 0 0 0 0
0 0 0 0 0 0 0 0 0 0 0 0 0 0 0 0 0 0 0 0 0 0 0 0 0 0 0 0 0 0 0 0 0 0 0 0 0 0 0 0 0 0 0 0
Wind_Speed
1 2 2 5 5 4 3 3 5 6 4 3 6 9 9 5 4 4 4 3 3 4 4 2 1 1 1 1 2 2 2 2 2 2 2 2 3 2 2 2 3 3 3 3
3 2 5 4 3 2 3 3 4 5 3 3 4 8 7 4 4 4 4 4 4 4 4 3 1 1 1 1 2 2 3 3 3 3 3 2 2 2 2 2 3 4 4 4
3 4 3 1 0 0 2 3 3 3 5 3 3 7 4 2 2 2 3 3 3 4 4 3 2 2 1 2 2 3 3 3 3 3 2 1 1 1 1 2 2 3 3 3
1 2 1 0 1 1 3 2 2 2 2 3 1 4 6 3 3 4 5 4 3 3 3 4 4 3 3 3 3 3 3 2 3 3 3 4 3 3 3 3 2 2 3 3
2 1 0 1 2 2 3 2 2 1 1 2 1 2 8 2 4 7 6 5 4 3 3 4 4 4 3 3 2 3 2 2 2 3 4 4 3 3 2 2 2 2 2 3
2 1 1 2 2 1 1 2 3 4 4 2 3 3 8 3 5 6 5 5 4 3 3 3 3 2 2 1 2 2 2 2 2 2 3 4 4 3 3 3 3 3 2 2
4 3 2 1 2 3 3 4 4 5 3 5 2 3 8 5 4 4 5 5 4 3 2 2 2 2 2 2 2 2 2 2 3 3 3 4 5 4 5 4 4 3 3 2
1 4 2 1 0 1 1 3 4 3 4 5 3 5 7 3 3 3 3 3 3 3 3 2 2 2 2 2 2 2 2 3 3 3 3 3 4 4 3 4 4 4 3 3
1 4 3 2 1 2 1 1 3 3 1 3 5 6 7 3 5 5 5 5 5 5 5 4 3 3 2 2 2 2 2 2 2 2 2 3 3 4 4 4 4 3 3 3
2 3 4 3 2 1 1 2 3 3 1 4 6 5 5 5 5 5 5 5 6 5 5 5 4 3 2 2 2 1 1 1 1 1 2 2 3 3 3 3 4 4 4 3
2 1 4 3 1 2 1 1 1 2 3 3 4 7 3 3 3 3 4 4 4 4 5 5 4 4 3 2 2 1 1 1 1 1 2 2 2 1 2 2 3 4 3 4
1 2 2 5 3 1 2 2 3 2 3 3 3 8 3 2 3 3 4 5 6 5 5 4 4 4 3 3 3 2 2 1 1 1 1 1 1 1 1 2 2 2 3 3
2 3 2 5 3 3 1 1 1 2 2 2 4 9 3 4 4 5 5 6 6 6 6 5 4 3 3 3 3 2 2 2 2 1 0 0 0 1 2 2 2 2 2 2
2 2 5 6 5 2 3 3 2 3 3 4 8 10 8 8 8 8 7 7 6 6 6 5 4 4 3 3 3 2 2 2 2 1 0 0 1 1 1 1 1 1 2 2
3 2 3 6 5 4 5 6 4 6 7 7 8 9 11 9 8 8 7 7 7 7 6 5 5 4 4 4 3 3 3 2 2 1 1 1 1 1 1 1 1 0 0 0
2 1 1 4 3 3 6 8 7 8 7 8 9 12 9 8 6 6 6 6 6 7 6 5 4 4 4 4 3 3 3 2 1 1 1 1 1 2 1 1 1 1 1 1
1 2 0 4 4 3 7 7 7 6 6 6 9 10 7 7 6 5 5 6 6 7 6 5 4 4 4 3 2 2 2 2 2 2 2 2 2 1 1 1 2 1 0 0
3 2 1 2 3 5 7 1 3 4 5 5 6 6 6 6 6 5 4 4 6 5 5 5 4 4 3 3 2 2 2 2 2 2 2 2 1 1 1 1 1 1 1 0
4 4 2 1 2 8 7 3 2 3 6 4 5 6 5 5 4 4 3 4 4 4 4 4 3 2 3 3 2 2 2 2 2 2 2 1 1 1 1 1 1 1 1 1
3 3 3 2 2 6 5 2 1 1 5 3 2 4 4 3 3 5 5 5 5 4 4 3 3 3 3 3 3 3 3 3 2 2 1 1 1 1 1 1 1 1 0 1
1 1 3 4 5 9 5 2 1 2 6 4 2 3 3 3 5 5 5 4 4 4 4 3 3 3 3 3 3 3 3 3 3 2 2 2 2 1 1 1 0 0 1 1
6 4 5 4 4 9 2 2 4 5 3 3 3 4 4 5 5 4 3 3 4 3 3 3 3 3 3 3 2 3 3 3 2 2 2 3 2 2 2 1 1 1 0 0
6 7 6 8 8 3 2 4 4 2 3 3 4 5 4 4 4 4 3 3 3 3 3 2 2 3 4 3 2 2 3 2 2 3 3 3 3 2 2 1 1 1 1 1
4 2 3 4 7 5 4 4 4 3 4 5 5 5 4 4 4 4 3 3 3 2 2 2 2 3 3 4 3 2 2 2 2 2 3 3 2 2 2 1 1 1 1 1
4 3 3 5 6 5 5 4 5 5 5 5 5 5 4 4 4 4 3 3 3 2 2 1 1 2 3 3 4 3 3 2 2 2 2 3 3 2 2 2 1 1 2 2
4 5 5 6 5 4 6 4 4 4 6 6 5 5 4 3 4 4 3 3 2 1 1 1 1 2 2 3 3 4 3 2 1 2 2 2 2 2 2 2 2 3 3 4
Wind_Direction
55 85 200 216 210 210 220 235 263 270 283 284 257 273 280 270 256 258 267 269 269 272 270 254 213 211 225 195 182 195 173 194 174 170 181 190 192 183 179 184 178 175 175 172
48 252 238 239 231 216 229 253 277 293 306 295 285 284 278 258 238 239 245 258 262 275 288 280 253 193 214 242 225 199 187 200 192 189 192 194 193 186 183 187 187 187 181 184
184 244 264 209 118 240 264 225 243 272 324 330 326 305 293 299 266 272 270 263 258 255 264 273 265 234 201 229 239 234 211 201 196 188 162 152 140 164 181 194 202 199 189 195
251 279 289 242 256 194 268 241 239 274 340 305 4 296 283 285 301 298 298 304 285 272 254 249 245 239 225 226 227 229 219 204 199 185 170 172 192 204 209 202 204 214 203 202
276 281 310 246 247 219 234 269 284 289 163 318 293 240 281 306 290 290 292 297 298 285 247 240 244 238 238 225 218 221 208 202 201 191 185 183 199 222 204 185 190 210 220 212
260 281 222 233 279 237 239 23 29 44 68 299 241 194 278 262 263 294 303 303 305 300 274 261 263 256 252 244 233 224 195 204 192 183 185 185 198 210 201 202 202 209 221 219
337 326 322 24 13 9 60 71 26 0 3 259 259 218 255 265 278 275 294 304 301 301 308 306 308 297 281 261 251 238 205 215 203 188 193 197 203 205 209 209 209 209 215 218
1 305 309 358 158 204 186 134 154 209 241 282 299 242 257 277 307 310 311 330 347 338 330 320 305 288 284 275 265 244 226 229 220 200 204 202 208 205 212 209 213 214 221 220
161 275 315 325 314 143 136 175 175 139 248 275 275 285 298 309 342 354 357 359 349 338 331 327 326 322 302 286 269 253 247 245 235 221 212 212 208 207 209 206 205 214 225 226
154 271 295 312 13 13 142 149 103 128 199 270 286 271 265 301 312 334 339 336 335 340 338 329 324 323 316 307 298 303 266 251 243 228 222 226 219 217 214 206 206 210 215 217
111 176 308 345 229 229 93 88 124 145 175 196 273 272 244 259 277 302 308 317 328 329 323 319 322 329 335 346 342 332 320 303 276 248 236 226 233 230 224 216 216 214 211 201
107 126 273 268 268 247 184 183 154 175 244 216 241 271 292 299 291 313 318 327 329 326 323 322 323 334 347 349 343 343 344 318 277 255 228 221 238 218 204 211 218 209 209 208
132 118 0 339 338 358 343 277 191 146 146 196 225 267 317 347 334 330 325 324 324 323 324 328 332 335 339 340 340 346 343 323 312 308 256 199 233 197 194 200 203 196 206 216
100 149 189 217 237 230 267 269 218 160 201 235 238 265 293 312 314 316 316 317 316 316 318 323 324 328 336 341 342 345 344 335 330 340 30 305 291 213 180 185 184 208 213 215
93 195 240 262 269 248 251 255 235 217 219 228 257 263 278 291 296 302 305 314 320 321 324 324 324 327 334 340 342 342 342 342 342 6 25 343 2 37 85 96 102 91 32 294
79 173 274 289 275 255 271 262 243 238 236 247 268 274 278 291 299 303 306 312 313 314 315 318 323 327 330 331 335 342 352 352 13 36 7 16 48 53 78 89 80 67 45 9
150 144 150 282 310 329 280 246 218 227 226 217 243 263 300 311 307 299 301 305 302 307 313 316 315 316 319 326 333 337 340 360 28 37 18 26 53 55 43 77 70 49 42 49
156 149 167 292 6 252 249 249 201 228 252 240 256 278 292 294 295 286 283 286 299 306 312 319 321 322 328 332 346 355 3 28 37 39 30 29 46 43 37 66 66 21 347 5
168 154 146 149 273 280 291 275 187 206 271 246 249 278 302 316 316 303 307 314 299 300 307 309 308 317 334 342 352 12 27 34 42 37 22 10 18 24 29 36 34 355 23 349
79 115 138 160 221 251 262 284 245 123 286 292 262 284 304 345 328 291 312 323 324 326 325 327 341 3 3 353 5 32 25 24 16 9 359 354 14 25 13 349 335 351 2 322
114 127 183 199 236 263 265 281 91 159 267 304 282 285 283 253 248 278 307 319 323 324 333 345 2 10 360 355 13 25 17 3 346 351 1 4 2 354 343 9 354 349 339 346
180 177 197 177 218 259 250 129 182 231 276 293 286 280 272 271 281 290 297 305 319 331 342 352 4 0 359 2 17 17 357 340 350 3 7 359 353 346 5 32 357 336 304 328
202 195 191 197 219 252 200 211 239 252 266 272 273 283 275 276 279 286 289 291 302 313 326 344 360 359 357 359 12 6 337 348 6 12 5 357 354 353 354 5 341 334 332 318
251 197 191 252 267 271 261 257 276 271 263 277 277 278 272 267 271 276 282 293 299 307 318 342 7 4 351 351 359 352 338 360 25 14 356 351 349 348 347 341 337 335 318 296
237 181 211 254 275 299 276 261 271 283 291 294 292 281 267 264 269 268 273 281 285 304 320 351 355 339 334 342 348 347 346 9 22 1 349 346 345 340 339 341 330 309 288 277
207 189 198 238 241 239 267 278 284 289 291 288 289 292 284 260 264 273 272 274 275 290 317 335 337 335 334 340 339 338 340 357 10 351 344 339 334 329 324 323 338 346 329 337